TimeEDT,TemperatureF,Dew PointF,Humidity,Sea Level PressureIn,VisibilityMPH,Wind Direction,Wind SpeedMPH,Gust SpeedMPH,PrecipitationIn,Events,Conditions,WindDirDegrees,DateUTC
12:53 AM,64.0,62.1,93,29.88,10.0,SSE,3.5,-,N/A,,Clear,160,2013-08-03 04:53:00
1:53 AM,63.0,61.0,93,29.86,10.0,SSE,3.5,-,N/A,,Clear,160,2013-08-03 05:53:00
2:53 AM,62.1,60.1,93,29.84,10.0,SSE,4.6,-,N/A,,Clear,150,2013-08-03 06:53:00
3:53 AM,61.0,60.1,97,29.83,6.0,Calm,Calm,-,N/A,,Clear,0,2013-08-03 07:53:00
4:53 AM,62.1,61.0,96,29.83,7.0,SSE,4.6,-,N/A,,Clear,160,2013-08-03 08:53:00
5:53 AM,63.0,61.0,93,29.83,10.0,South,3.5,-,N/A,,Overcast,180,2013-08-03 09:53:00
6:53 AM,64.0,61.0,90,29.84,10.0,South,3.5,-,N/A,,Clear,190,2013-08-03 10:53:00
7:53 AM,66.0,62.1,87,29.85,10.0,SSW,4.6,-,N/A,,Clear,210,2013-08-03 11:53:00
8:53 AM,66.9,63.0,87,29.86,10.0,Calm,Calm,-,N/A,,Clear,0,2013-08-03 12:53:00
9:53 AM,69.1,60.1,73,29.85,10.0,SSW,6.9,-,N/A,,Clear,210,2013-08-03 13:53:00
10:53 AM,70.0,62.1,76,29.86,10.0,South,4.6,-,N/A,,Clear,190,2013-08-03 14:53:00
11:53 AM,73.0,60.1,64,29.85,10.0,Calm,Calm,-,N/A,,Clear,0,2013-08-03 15:53:00
12:53 PM,75.9,57.0,52,29.84,10.0,West,5.8,-,N/A,,Scattered Clouds,280,2013-08-03 16:53:00
1:53 PM,77.0,57.9,52,29.83,10.0,SW,6.9,-,N/A,,Mostly Cloudy,230,2013-08-03 17:53:00
2:53 PM,77.0,57.0,50,29.82,10.0,SW,10.4,-,N/A,,Scattered Clouds,220,2013-08-03 18:53:00
3:53 PM,79.0,55.9,45,29.80,10.0,West,4.6,-,N/A,,Mostly Cloudy,260,2013-08-03 19:53:00
4:53 PM,78.1,57.0,48,29.80,10.0,NW,9.2,-,N/A,,Overcast,320,2013-08-03 20:53:00
5:53 PM,77.0,57.0,50,29.80,10.0,WNW,8.1,-,N/A,,Mostly Cloudy,290,2013-08-03 21:53:00
6:53 PM,75.9,61.0,60,29.81,10.0,West,4.6,-,N/A,,Mostly Cloudy,270,2013-08-03 22:53:00
7:53 PM,70.0,64.0,81,29.83,10.0,South,3.5,-,N/A,,Clear,170,2013-08-03 23:53:00
8:53 PM,66.0,63.0,90,29.85,10.0,South,3.5,-,N/A,,Clear,170,2013-08-04 00:53:00
9:53 PM,64.0,62.1,93,29.87,10.0,Calm,Calm,-,N/A,,Clear,0,2013-08-04 01:53:00
10:53 PM,63.0,61.0,93,29.88,7.0,Calm,Calm,-,N/A,,Clear,0,2013-08-04 02:53:00
11:03 PM,62.6,60.8,94,29.87,1.5,Calm,Calm,-,N/A,,Clear,0,2013-08-04 03:03:00
11:06 PM,60.8,60.8,100,29.88,1.0,Calm,Calm,-,N/A,,Mist,0,2013-08-04 03:06:00
11:13 PM,62.6,60.8,94,29.88,2.0,Calm,Calm,-,N/A,,Partly Cloudy,0,2013-08-04 03:13:00
11:20 PM,60.8,60.8,100,29.87,4.0,Calm,Calm,-,N/A,,Clear,0,2013-08-04 03:20:00
11:28 PM,60.8,59.0,94,29.87,1.5,Calm,Calm,-,N/A,,Partly Cloudy,0,2013-08-04 03:28:00
11:33 PM,60.8,59.0,94,29.87,0.8,Calm,Calm,-,N/A,,Mist,0,2013-08-04 03:33:00
11:43 PM,60.8,59.0,94,29.87,0.2,SSE,3.5,-,N/A,Fog,Fog,160,2013-08-04 03:43:00
11:50 PM,59.0,57.2,94,29.87,1.0,South,4.6,-,N/A,,Mist,190,2013-08-04 03:50:00
11:53 PM,59.0,57.9,96,29.87,2.0,South,3.5,-,N/A,,Partly Cloudy,190,2013-08-04 03:53:00